EHI
27 30 32 38 51 59 60 59 57 54 49 45 41 37 34 34 33 33 34 32 26 20 16 14 15 16 15 13 12 11 12 13 13 11 8 4 2 3 5 6 5 6 7
31 33 34 39 51 59 61 60 59 54 51 49 45 40 38 35 33 36 37 33 27 23 19 17 17 18 17 15 14 13 13 13 13 11 8 4 2 3 5 5 4 4 6
35 35 35 40 49 57 60 60 60 57 53 51 48 45 44 39 36 39 41 35 29 25 22 19 19 19 19 17 16 14 13 12 12 11 8 5 3 4 4 3 2 3 6
36 35 36 40 46 53 57 59 60 59 55 51 49 49 48 42 39 42 45 41 33 26 21 19 19 19 19 18 15 12 11 11 10 10 8 6 5 5 3 2 1 3 5
37 36 37 40 44 48 53 57 59 59 57 53 51 50 48 44 42 45 47 45 38 27 19 19 21 21 19 16 13 11 10 9 9 9 8 6 5 3 2 1 2 3 4
35 36 37 42 43 44 48 54 57 57 56 54 52 51 48 46 45 45 45 45 39 30 23 22 26 25 20 15 13 12 10 9 9 9 9 7 3 1 1 2 2 2 2
32 32 35 39 42 42 46 51 53 54 53 51 50 50 49 47 45 43 43 43 40 34 29 27 29 27 21 16 13 12 11 10 10 9 8 6 3 1 2 3 2 1 1
30 30 32 35 39 43 47 51 52 52 51 49 49 49 48 47 44 43 42 42 38 34 31 31 30 26 20 15 15 14 12 11 10 8 6 4 2 2 3 3 3 2 1
30 31 31 34 39 43 48 50 50 50 49 47 47 48 47 45 43 42 40 38 34 31 32 32 30 25 18 16 18 18 14 11 11 11 10 7 4 4 6 6 6 5 4
28 31 32 34 39 43 47 49 49 48 47 46 46 46 45 42 40 40 39 36 34 32 32 32 28 23 19 19 21 21 19 17 16 16 17 14 10 9 10 11 10 9 7
28 31 32 33 38 41 44 47 49 49 47 46 45 45 44 40 38 38 37 36 35 34 32 30 27 22 19 19 20 19 20 21 19 18 18 17 14 14 14 13 12 11 11
31 33 33 32 34 37 40 44 47 47 46 45 44 44 43 40 38 37 36 35 34 32 29 28 26 21 17 18 19 17 18 20 20 17 15 14 14 15 14 14 13 12 13
30 33 33 32 33 36 38 41 43 43 42 41 41 42 40 38 37 36 35 34 31 29 27 26 23 17 14 15 17 15 14 15 17 16 14 13 14 14 14 15 15 14 13
26 29 33 35 37 39 41 40 39 39 39 39 39 39 37 35 33 32 33 32 28 26 25 21 17 13 10 10 12 12 11 11 13 15 16 15 14 14 13 14 14 14 14
22 26 32 38 41 43 44 41 38 37 38 37 37 36 34 32 31 31 30 29 26 24 23 19 14 11 9 8 8 9 10 10 11 14 16 15 12 10 10 10 11 12 13
23 25 31 39 43 44 44 42 38 35 34 33 33 32 31 31 31 30 29 27 25 23 22 20 17 14 11 8 6 7 9 11 13 15 14 11 8 7 7 7 7 7 9
28 28 33 40 44 44 42 40 36 31 29 28 28 28 28 29 28 27 26 26 25 23 22 20 19 16 12 8 4 4 8 12 14 14 13 10 8 7 8 8 7 6 6
32 33 37 42 45 43 39 36 33 27 23 24 25 25 26 26 24 23 24 23 22 21 21 20 20 17 13 7 2 2 6 10 12 13 12 11 9 8 9 9 8 8 7
33 35 39 42 44 41 35 32 29 23 20 22 24 24 24 23 21 20 20 19 19 19 20 20 19 17 13 7 2 2 6 10 11 11 10 10 9 8 7 8 9 10 10
32 34 35 37 39 37 32 28 25 21 19 21 23 23 22 21 19 19 18 17 16 15 17 19 18 16 12 6 1 2 7 10 10 9 9 8 6 5 4 5 8 9 10
31 31 32 34 35 35 31 26 23 21 19 19 19 20 19 17 16 16 16 16 15 14 15 16 15 13 9 5 1 1 5 8 10 10 8 6 4 2 1 2 5 7 7
31 30 30 32 33 32 30 27 25 24 20 17 16 17 16 14 13 13 14 15 15 14 13 13 11 9 6 4 1 1 2 4 8 9 7 4 2 1 0 1 2 3 3
30 28 28 29 30 28 26 26 27 26 22 18 18 17 15 13 12 12 13 13 13 12 11 10 8 7 6 4 2 1 0 2 4 5 4 2 1 0 0 0 1 1 1
27 26 26 27 26 24 23 24 26 26 23 21 20 18 15 12 11 11 11 11 10 9 8 7 7 7 7 6 4 1 0 0 1 1 1 1 0 0 1 1 1 1 1
23 23 24 24 22 23 24 24 24 24 23 21 20 18 14 10 8 8 8 8 7 6 7 7 7 7 7 6 4 2 0 0 0 0 0 0 0 0 1 2 2 2 2
21 20 20 20 19 21 23 25 23 22 22 19 18 16 13 9 6 5 5 5 4 4 5 6 7 7 6 4 2 1 0 0 0 0 0 0 0 0 1 1 2 3 3
Wind_Speed
9 9 9 9 10 9 8 7 6 5 4 3 3 2 2 2 2 2 3 3 2 2 2 1 1 1 1 1 1 1 1 1 1 1 1 0 0 1 1 1 1 2 2
11 9 8 8 9 9 9 7 6 6 4 3 2 2 3 2 2 2 3 3 2 2 2 2 1 1 1 1 1 1 0 0 1 0 0 0 0 1 1 2 2 2 2
12 11 9 9 10 10 9 7 6 6 5 4 3 2 2 1 2 3 3 3 3 2 2 2 1 1 1 1 1 0 0 1 0 0 0 0 0 0 0 1 1 2 1
13 12 11 9 9 10 10 8 7 6 5 5 4 4 3 3 3 2 3 3 3 3 3 3 2 1 1 1 1 1 1 1 1 1 0 0 1 0 0 0 1 2 2
13 12 11 10 9 9 10 9 8 7 6 5 4 3 3 2 2 2 3 3 3 3 3 3 2 2 1 1 1 1 1 1 1 1 0 0 1 1 1 1 0 0 0
11 11 10 9 8 9 9 10 9 7 6 5 5 4 4 3 3 3 4 3 3 3 3 3 2 2 1 1 1 1 1 0 1 1 1 0 0 0 0 1 1 0 1
10 11 11 11 9 9 9 9 9 8 7 6 5 5 4 4 4 3 3 3 3 3 3 3 2 2 1 1 1 1 1 1 1 1 1 1 1 0 0 1 1 1 1
9 9 10 10 10 9 8 9 9 8 8 7 6 5 4 3 3 3 3 3 3 3 3 3 2 2 2 2 1 1 1 1 1 2 1 2 1 1 1 1 1 1 1
7 6 6 7 7 8 8 8 8 8 7 7 7 5 5 4 3 4 3 3 3 3 4 4 3 3 3 2 2 2 1 1 2 1 1 1 2 2 1 1 1 1 1
6 6 6 7 6 7 6 7 8 7 7 7 6 6 5 5 4 3 3 3 3 3 4 3 3 3 3 2 2 1 2 2 1 1 1 1 1 1 1 1 1 1 1
6 5 5 4 6 6 7 6 7 7 6 6 5 4 5 5 4 4 4 3 3 3 3 3 3 3 3 3 2 3 2 2 2 2 1 1 1 2 1 1 1 1 0
5 5 5 4 3 5 5 5 6 7 7 6 5 5 5 4 5 4 3 3 3 3 3 3 3 3 3 3 3 3 2 2 2 2 2 2 1 2 2 1 1 1 1
4 4 4 3 2 3 4 5 5 6 7 6 6 5 5 5 5 4 4 3 3 3 3 2 3 2 2 2 3 3 2 2 2 2 2 2 2 2 1 2 2 1 1
4 4 4 3 2 2 3 5 4 5 6 6 6 6 5 4 4 4 4 3 3 3 3 2 2 2 2 1 2 2 2 2 2 1 1 2 1 2 2 2 2 1 2
4 5 5 3 2 3 3 3 4 4 5 6 5 5 5 4 4 4 4 3 3 3 2 2 2 2 2 1 0 1 2 1 2 2 1 1 1 1 1 2 2 2 1
4 4 5 5 3 3 3 3 3 3 4 5 5 4 4 4 4 4 4 3 3 3 2 2 2 1 0 1 1 1 2 1 2 2 2 2 2 2 3 3 2 2 2
4 3 4 4 3 3 3 2 2 3 4 4 5 4 4 4 3 4 3 3 2 2 2 2 2 2 1 2 1 1 2 2 2 2 2 2 1 1 2 3 4 3 4
3 3 3 4 4 4 4 3 3 3 3 4 4 4 4 3 3 3 3 2 2 2 2 2 2 2 1 2 1 1 2 3 3 3 3 2 2 2 2 3 2 2 2
4 3 3 4 4 4 3 3 3 3 3 3 3 3 3 3 3 3 2 2 2 2 2 2 2 2 2 2 2 2 3 3 3 3 3 3 2 1 3 3 3 2 2
4 3 3 4 4 3 2 3 2 2 2 2 2 2 3 3 2 2 2 2 2 2 2 2 2 2 2 2 3 3 2 3 3 2 2 2 2 2 2 3 3 3 3
4 4 3 3 4 2 3 2 1 1 1 2 2 2 2 2 3 2 2 2 2 2 2 2 2 2 2 3 4 4 2 3 3 2 2 1 3 3 3 4 3 4 4
4 3 3 3 3 3 2 2 1 1 1 1 2 2 2 2 3 2 2 2 2 3 3 3 3 3 3 3 4 5 5 4 2 2 1 1 2 3 4 4 5 5 5
3 2 3 3 3 2 2 2 2 1 1 1 2 2 2 1 2 3 4 3 3 3 4 4 4 3 3 3 4 5 5 4 2 2 2 3 4 4 4 6 6 5 3
2 2 2 2 2 2 2 2 2 1 2 2 2 2 2 2 2 2 3 3 3 3 3 3 3 2 1 1 1 2 2 3 3 3 3 4 6 6 5 5 4 4 3
2 1 1 1 1 1 1 2 2 2 2 2 2 3 3 3 2 1 1 2 0 1 1 1 1 1 1 0 1 1 1 1 1 2 3 3 2 2 3 3 3 3 3
2 1 1 1 1 1 1 2 2 2 2 3 3 3 3 3 3 3 1 1 0 2 2 1 1 1 2 3 2 0 1 2 2 2 3 3 2 2 2 2 2 1 1
Wind_Direction
162 155 156 158 150 142 144 146 146 144 151 151 174 175 168 170 150 144 130 133 139 132 127 106 115 99 93 87 86 93 90 113 135 125 105 46 182 182 166 173 166 146 146
163 157 161 164 154 149 151 151 150 152 163 164 178 178 172 170 154 139 131 138 148 147 142 127 133 115 111 99 74 74 83 187 131 137 172 143 12 315 194 169 164 156 150
167 165 167 168 163 158 158 162 159 159 173 164 169 181 156 163 137 134 139 150 154 154 125 127 114 111 121 126 161 112 281 298 321 41 39 105 163 227 309 192 148 138 126
169 170 173 173 171 164 161 159 157 159 168 162 174 178 167 176 166 162 147 159 153 145 143 139 136 134 120 122 173 150 223 247 274 290 267 202 155 188 193 269 113 150 154
169 169 174 172 170 165 163 162 159 162 169 171 171 180 180 175 155 147 135 155 152 150 146 142 144 156 151 148 190 134 213 238 271 290 275 242 248 214 196 211 47 348 176
165 164 167 160 166 163 163 159 159 164 168 175 179 188 187 171 155 158 153 164 155 153 147 150 155 174 170 187 184 220 209 276 305 305 309 314 258 194 239 205 217 250 253
164 165 168 165 171 168 162 160 162 168 173 178 183 189 195 183 169 174 163 163 158 155 158 159 167 179 183 189 182 220 223 220 264 278 299 308 279 243 216 182 208 244 256
165 164 168 165 169 166 162 159 165 169 173 178 181 185 188 189 185 177 172 169 166 160 155 156 172 172 178 197 187 213 222 217 261 265 269 281 283 272 231 207 200 257 280
160 154 155 153 162 164 163 160 161 167 171 177 179 180 181 189 186 168 169 168 162 165 150 165 171 171 184 194 201 214 212 210 234 251 258 276 286 273 270 243 208 209 246
150 152 153 152 161 155 154 157 156 162 170 176 183 178 179 179 174 171 170 166 157 154 155 171 173 176 188 194 205 225 222 215 218 228 240 262 285 287 267 252 251 237 217
144 136 134 149 152 147 152 155 152 157 165 172 175 172 165 167 169 172 168 160 155 161 168 173 178 184 189 189 212 233 216 216 221 238 232 243 267 285 281 274 274 270 201
122 131 135 129 147 154 154 150 156 161 163 162 161 157 152 159 164 165 158 152 156 166 174 179 185 198 198 196 212 236 225 227 225 225 227 240 248 268 296 309 305 290 256
119 123 123 126 147 159 152 147 153 159 156 152 151 152 158 163 164 160 156 158 165 171 181 188 189 203 206 203 217 235 229 234 230 221 216 243 255 261 275 277 280 278 278
120 117 120 125 140 116 119 132 141 141 148 146 152 153 160 162 161 160 162 169 167 172 176 181 192 202 208 207 230 253 242 242 245 238 223 229 243 261 267 266 284 282 290
128 128 130 127 124 106 96 111 127 137 143 146 154 155 156 158 163 166 169 171 173 175 170 176 197 211 208 198 191 272 252 248 263 259 241 232 228 241 254 263 293 290 280
136 135 137 133 133 120 113 107 116 131 133 136 142 148 151 156 164 167 166 166 171 165 167 179 180 187 227 87 91 296 284 268 261 264 258 238 223 230 223 233 260 275 266
131 124 128 124 112 105 101 110 122 128 139 140 140 144 144 151 163 168 157 161 160 154 148 157 158 149 146 132 129 319 299 282 270 268 266 268 261 271 250 226 231 251 267
121 115 111 115 109 103 97 92 98 107 130 126 127 131 132 134 134 131 136 138 150 159 162 175 174 169 168 138 159 274 263 268 256 247 239 237 240 271 289 269 243 238 259
100 97 105 119 117 118 119 119 117 119 122 129 135 136 134 141 148 142 140 139 149 165 177 186 189 182 172 188 192 224 260 257 255 250 244 225 219 243 271 274 266 259 261
105 104 119 117 107 106 118 122 132 137 141 140 142 138 140 154 158 156 162 159 168 184 184 181 188 184 178 202 197 202 249 261 261 248 231 201 202 201 239 255 269 266 274
104 113 116 114 115 127 127 138 138 167 166 138 136 147 157 165 165 165 171 179 205 197 187 198 196 189 184 192 199 198 234 262 269 262 246 185 167 191 233 250 261 261 279
115 124 122 121 122 131 146 160 169 183 172 154 153 153 176 201 177 165 185 198 213 209 209 216 216 205 192 189 200 204 223 252 278 284 283 240 205 228 249 255 262 270 273
124 125 129 133 136 151 179 190 184 178 174 169 170 169 190 203 185 193 200 205 211 225 222 217 223 211 192 179 193 201 220 236 251 284 296 280 245 242 245 243 254 262 259
130 134 142 136 148 178 204 191 177 176 181 190 194 192 193 200 197 206 213 211 218 228 227 223 232 218 190 173 180 199 221 237 246 266 282 271 253 242 245 245 239 236 247
134 140 148 160 187 200 205 190 163 169 197 206 207 210 205 195 188 206 258 239 265 259 234 263 271 258 211 97 87 5 265 263 279 281 253 247 249 238 231 222 223 229 239
142 150 182 191 199 211 212 188 173 181 205 217 215 220 212 198 199 200 206 40 152 145 139 122 159 105 131 156 140 170 283 277 282 267 259 254 248 250 255 256 253 237 241